Prudhoe Bay, AK

7:47 PM AKST on February 08, 2016 (GMT -0900)
Deadhorse

Weather History for PASC - April, 2013

Change the Weather History Date:

Saturday, April 13, 2013

  Actual Average Record
Temperature  
Mean Temperature -8 °F -  
Max Temperature 3 °F 8 °F 37 °F (1989)
Min Temperature -18 °F -4 °F -25 °F (1999)
Degree Days  
Heating Degree Days 74    
Moisture  
Dew Point -16 °F    
Average Humidity 75    
Maximum Humidity 87    
Minimum Humidity 68    
Precipitation  
Precipitation 0.00 in - - ()
Sea Level Pressure  
Sea Level Pressure 30.45 in    
Wind  
Wind Speed 5 mph (West)    
Max Wind Speed 9 mph    
Max Gust Speed -    
Visibility 9 miles    
Events Snow    
Averages and records for this station are not official NWS values.
T = Trace of Precipitation, MM = Missing Value Source: NWS Daily Summary

Daily Weather History Graph

Daily Weather History Graph

Search for Another Location

Airport or City:

Trip Planner

Search our weather history database for the weather conditions in past years. The results will help you decide how hot, cold, wet, or windy it might be!

Date:

Astronomy

Apr. 13, 2013 Rise Set
Actual Time 5:55 AM AKDT 9:55 PM AKDT
Civil Twilight 4:35 AM AKDT 11:18 PM AKDT
Nautical Twilight 2:26 AM AKDT 1:21 AM AKDT
Astronomical Twilight Sun does not rise Sun does not rise
Moon 5:32 AM AKDT (4/13) 2:50 AM AKDT (4/13)
Length of Visible Light 18h 42m
Length of Day
16h 00m
Waxing Crescent, 11% of the Moon is Illuminated
Apr 13
Waxing Crescent
Apr 18
First Quarter
Apr 25
Full
May 2
Last Quarter
May 9
New

Hourly Weather History & Observations

Time (AKDT) Temp. Windchill Dew Point Humidity Pressure Visibility Wind Dir Wind Speed Gust Speed Precip Events Conditions
12:53 AM -15.0 °F -33.7 °F -20.9 °F 75% 30.47 in 10.0 mi WSW 9.2 mph - N/A   Clear
1:53 AM -18.0 °F -36.1 °F -24.0 °F 74% 30.47 in 10.0 mi West 8.1 mph - N/A   Clear
2:53 AM -18.0 °F -34.7 °F -24.0 °F 74% 30.46 in 10.0 mi WSW 6.9 mph - N/A   Clear
3:53 AM -18.9 °F -35.8 °F -24.0 °F 78% 30.46 in 10.0 mi WSW 6.9 mph - N/A   Clear
4:53 AM -18.9 °F -34.0 °F -25.1 °F 74% 30.45 in 10.0 mi WSW 5.8 mph - N/A   Clear
5:53 AM -18.9 °F -29.5 °F -26.0 °F 70% 30.44 in 10.0 mi West 3.5 mph - N/A   Clear
6:53 AM -18.9 °F -32.0 °F -25.1 °F 74% 30.43 in 10.0 mi WSW 4.6 mph - N/A   Clear
7:53 AM -18.0 °F -30.9 °F -25.1 °F 70% 30.43 in 10.0 mi West 4.6 mph - N/A   Clear
8:53 AM -18.0 °F -33.0 °F -24.0 °F 74% 30.42 in 10.0 mi West 5.8 mph - N/A   Clear
9:53 AM -15.0 °F - -20.9 °F 75% 30.42 in 10.0 mi Calm Calm - N/A   Scattered Clouds
10:04 AM -13.0 °F - -20.2 °F 70% 30.40 in 10.0 mi Calm Calm - N/A   Scattered Clouds
10:53 AM -11.0 °F - -18.0 °F 71% 30.42 in 5.0 mi Calm Calm - N/A   Haze
11:53 AM -6.0 °F -14.7 °F -14.1 °F 68% 30.42 in 5.0 mi NNW 3.5 mph - N/A   Haze
12:53 PM -4.0 °F - -11.0 °F 72% 30.42 in 4.0 mi Calm Calm - N/A   Haze
1:53 PM -4.0 °F - -9.9 °F 76% 30.42 in 10.0 mi Calm Calm - N/A   Partly Cloudy
2:53 PM -0.0 °F -9.9 °F -8.0 °F 69% 30.42 in 8.0 mi North 4.6 mph - N/A   Scattered Clouds
3:53 PM 1.9 °F -7.6 °F -5.1 °F 72% 30.42 in 10.0 mi NNE 4.6 mph - N/A   Scattered Clouds
4:53 PM -0.0 °F - -5.1 °F 79% 30.44 in 10.0 mi Calm Calm - N/A   Clear
5:10 PM -0.4 °F - -5.8 °F 78% 30.43 in 8.0 mi Calm Calm - N/A Snow Light Snow
5:53 PM -0.0 °F - -5.1 °F 79% 30.44 in 5.0 mi Calm Calm - N/A Snow Light Snow
6:53 PM 1.0 °F -6.7 °F -6.0 °F 72% 30.45 in 10.0 mi NNW 3.5 mph - N/A   Clear
7:53 PM -6.0 °F -14.7 °F -11.0 °F 79% 30.47 in 10.0 mi West 3.5 mph - N/A   Clear
8:53 PM -9.0 °F -20.4 °F -11.9 °F 87% 30.48 in 10.0 mi WSW 4.6 mph - N/A   Clear
9:53 PM -6.0 °F -18.6 °F -9.9 °F 83% 30.49 in 10.0 mi NNW 5.8 mph - N/A   Mostly Cloudy
10:53 PM -11.0 °F -20.4 °F -15.0 °F 83% 30.51 in 4.0 mi West 3.5 mph - 0.00 in Snow Light Snow
11:53 PM -11.9 °F -27.3 °F -16.1 °F 82% 30.51 in 9.0 mi WSW 6.9 mph - 0.00 in Snow Light Snow